Location: Conjunto Santa Maria
(19.9513°S, 43.9599°W)
Time: 13:45:23
(UTC+00:00)

Nadezhda 2 Rocket - Pass Details

Date: 21 January 2021
Orbit: 948 x 1011 km, 83.0° (Epoch: 03 March)

Event Time Altitude Azimuth Distance (km) Brightness Sun altitude
Rises 23:06:16 0° 181° (S) 3,750 8.0 -18.9°
Reaches altitude 10° 23:08:50 10° 179° (S) 2,788 7.3 -19.4°
Maximum altitude 23:15:14 72° 94° (E) 1,042 4.4 -20.7°
Enters shadow 23:18:40 29° 16° (NNE) 1,734 5.4 -21.4°
